Indianapolis, IN

8:05 AM EST on November 15, 2019 (GMT -0500)
Indianapolis International

Weather History for KIND - September, 2019

Change the Weather History Date:

Tuesday, September 3, 2019

  Actual Average Record
Temperature  
Mean Temperature 74 °F 72 °F  
Max Temperature 85 °F 82 °F 100 °F (2011)
Min Temperature 63 °F 61 °F 45 °F (1952)
Degree Days  
Heating Degree Days 0 0  
Month to date heating degree days 0 0  
Since 1 July heating degree days 0 4  
Cooling Degree Days 9 7  
Month to date cooling degree days 24 22  
Year to date cooling degree days 1063 943  
Growing Degree Days 24 (Base 50)    
Moisture  
Dew Point 66 °F    
Average Humidity 78    
Maximum Humidity 100    
Minimum Humidity 55    
Precipitation  
Precipitation 0.00 in 0.10 in 2.63 in (1962)
Month to date precipitation T 0.30  
Year to date precipitation 36.55 29.63  
Snow  
Snow 0.00 in 0.00 in 0.00 in ()
Month to date snowfall 0.0 0.0  
Since 1 July snowfall 0.0 0.0  
Since 1 September snowfall 0.0 0.0  
Snow Depth 0.00 in    
Sea Level Pressure  
Sea Level Pressure 29.99 in    
Wind  
Wind Speed 8 mph (SSW)    
Max Wind Speed 18 mph    
Max Gust Speed 23 mph    
Visibility 9 miles    
Events Fog    
T = Trace of Precipitation, MM = Missing Value Source: NWS Daily Summary

Daily Weather History Graph

Daily Weather History Graph

Search for Another Location

Airport or City:

Astronomy

Sep. 03, 2019 Rise Set
Actual Time 7:14 AM EDT 8:13 PM EDT
Civil Twilight 6:47 AM EDT 8:41 PM EDT
Nautical Twilight 6:14 AM EDT 9:13 PM EDT
Astronomical Twilight 5:40 AM EDT 9:47 PM EDT
Moon 12:06 PM EDT (9/3) 11:10 PM EDT (9/3)
Length of Visible Light 13h 53m
Length of Day
12h 58m
Waxing Crescent, 24% of the Moon is Illuminated
Sep 3
Waxing Crescent
Sep 5
First Quarter
Sep 14
Full
Sep 21
Last Quarter
Sep 28
New

Hourly Weather History & Observations

Time (EDT) Temp. Heat Index Dew Point Humidity Pressure Visibility Wind Dir Wind Speed Gust Speed Precip Events Conditions
12:54 AM 66.9 °F - 63.0 °F 87% 30.06 in 10.0 mi Calm Calm - N/A   Partly Cloudy
1:54 AM 66.9 °F - 63.0 °F 87% 30.06 in 10.0 mi Calm Calm - N/A   Clear
2:54 AM 64.9 °F - 63.0 °F 93% 30.04 in 10.0 mi Calm Calm - N/A   Clear
3:54 AM 64.0 °F - 63.0 °F 96% 30.03 in 6.0 mi ESE 4.6 mph - N/A   Clear
4:54 AM 64.0 °F - 63.0 °F 96% 30.03 in 6.0 mi Calm Calm - N/A   Clear
5:54 AM 63.0 °F - 62.1 °F 97% 30.02 in 8.0 mi SSE 5.8 mph - N/A   Partly Cloudy
6:54 AM 64.0 °F - 62.1 °F 93% 30.03 in 6.0 mi SSE 4.6 mph - N/A   Partly Cloudy
7:54 AM 64.9 °F - 63.0 °F 93% 30.04 in 7.0 mi South 3.5 mph - N/A Fog Shallow Fog
8:54 AM 68.0 °F - 64.0 °F 87% 30.03 in 10.0 mi South 8.1 mph - N/A   Scattered Clouds
9:54 AM 72.0 °F - 64.9 °F 78% 30.06 in 10.0 mi West 4.6 mph - N/A   Scattered Clouds
10:54 AM 77.0 °F - 66.0 °F 69% 30.05 in 10.0 mi SSW 8.1 mph - N/A   Scattered Clouds
11:54 AM 79.0 °F - 66.9 °F 66% 30.04 in 10.0 mi SSW 8.1 mph - N/A   Scattered Clouds
12:54 PM 79.0 °F - 64.9 °F 62% 30.03 in 10.0 mi WSW 6.9 mph - N/A   Mostly Cloudy
1:54 PM 82.0 °F 83.4 °F 64.0 °F 54% 30.01 in 10.0 mi Calm Calm - N/A   Partly Cloudy
2:54 PM 84.0 °F 86.5 °F 66.9 °F 56% 29.97 in 10.0 mi South 11.5 mph 18.4 mph N/A   Scattered Clouds
3:54 PM 84.0 °F 86.3 °F 66.0 °F 55% 29.95 in 10.0 mi South 9.2 mph - N/A   Scattered Clouds
4:54 PM 84.0 °F 86.5 °F 66.9 °F 56% 29.93 in 10.0 mi SSW 15.0 mph - N/A   Scattered Clouds
5:54 PM 84.0 °F 87.0 °F 68.0 °F 58% 29.94 in 10.0 mi SW 12.7 mph - N/A   Scattered Clouds
6:54 PM 82.0 °F 85.9 °F 70.0 °F 67% 29.94 in 10.0 mi SW 16.1 mph - N/A   Scattered Clouds
7:54 PM 80.1 °F 83.2 °F 70.0 °F 71% 29.90 in 10.0 mi SSW 15.0 mph - N/A   Scattered Clouds
8:54 PM 78.1 °F - 70.0 °F 76% 29.90 in 10.0 mi SW 13.8 mph - N/A   Scattered Clouds
9:54 PM 75.9 °F - 70.0 °F 82% 29.91 in 10.0 mi SW 11.5 mph - N/A   Partly Cloudy
10:54 PM 75.0 °F - 70.0 °F 84% 29.90 in 10.0 mi SW 10.4 mph - N/A   Partly Cloudy
11:54 PM 75.0 °F - 70.0 °F 84% 29.92 in 10.0 mi SW 12.7 mph - N/A   Partly Cloudy